Weather History for Louisa, VA

Change the Weather History Date:

Wednesday, April 24, 2013

  Actual Average (KCHO) Record (KCHO)
Temperature  
Mean Temperature 60 °F 58 °F  
Max Temperature 78 °F 70 °F 98 °F (1925)
Min Temperature 41 °F 45 °F 31 °F (2002)
Degree Days  
Heating Degree Days 6 8  
Month to date heating degree days 264  
Since 1 July heating degree days 4268  
Cooling Degree Days 0 1  
Month to date cooling degree days 16  
Year to date cooling degree days 18  
Growing Degree Days 10 (Base 50)    
Moisture  
Dew Point 48 °F    
Average Humidity 65    
Maximum Humidity 93    
Minimum Humidity 34    
Precipitation  
Precipitation 0.00 in 0.12 in 2.52 in (1983)
Month to date precipitation 2.74  
Year to date precipitation 11.87  
Sea Level Pressure  
Sea Level Pressure 29.98 in    
Wind  
Wind Speed 4 mph (SSW)    
Max Wind Speed 16 mph    
Max Gust Speed 25 mph    
Visibility 8 miles    
Events      
T = Trace of Precipitation, MM = Missing Value Source: NWS Daily Summary

Daily Weather History Graph

Daily Weather History Graph

Search for Another Location

Airport:

Trip Planner

Search our weather history database for the weather conditions in past years. The results will help you decide how hot, cold, wet, or windy it might be!

Date:

Astronomy

Apr. 24, 2013 Rise Set
Actual Time 6:24 AM EDT 7:56 PM EDT
Civil Twilight 5:56 AM EDT 8:24 PM EDT
Nautical Twilight 5:22 AM EDT 8:57 PM EDT
Astronomical Twilight 4:47 AM EDT 9:33 PM EDT
Moon 6:58 PM EDT (4/24) 5:25 AM EDT (4/24)
Length of Visible Light 14h 28m
Length of Day
13h 32m
Waxing Gibbous, 98% of the Moon is Illuminated
Apr 24
Waxing Gibbous
Apr 25
Full
May 2
Last Quarter
May 9
New
May 18
First Quarter

Hourly Weather History & Observations

Time (EDT) Temp. Windchill Dew Point Humidity Pressure Visibility Wind Dir Wind Speed Gust Speed Precip Events Conditions
12:15 AM 42.8 °F - 41.0 °F 93% 30.11 in 7.0 mi Calm Calm - N/A   Clear
12:35 AM 42.8 °F - 39.2 °F 87% 30.11 in 5.0 mi Calm Calm - N/A   Clear
12:55 AM 42.8 °F - 41.0 °F 93% 30.11 in 7.0 mi Calm Calm - N/A   Clear
1:15 AM 42.8 °F - 39.2 °F 87% 30.11 in 7.0 mi Calm Calm - N/A   Clear
1:35 AM 44.6 °F - 42.8 °F 93% 30.11 in 7.0 mi Calm Calm - N/A   Clear
2:15 AM 42.8 °F - 39.2 °F 87% 30.10 in 5.0 mi Calm Calm - N/A   Clear
2:35 AM 42.8 °F - 39.2 °F 87% 30.09 in 3.0 mi Calm Calm - N/A   Clear
2:55 AM 42.8 °F - 39.2 °F 87% 30.08 in 1.8 mi Calm Calm - N/A   Mist
3:15 AM 42.8 °F - 39.2 °F 87% 30.08 in 5.0 mi Calm Calm - N/A   Clear
3:35 AM 41.0 °F - 39.2 °F 93% 30.07 in 4.0 mi Calm Calm - N/A   Clear
3:55 AM 41.0 °F - 39.2 °F 93% 30.07 in 3.0 mi Calm Calm - N/A   Clear
4:15 AM 42.8 °F - 41.0 °F 93% 30.07 in 5.0 mi Calm Calm - N/A   Clear
4:35 AM 44.6 °F - 42.8 °F 93% 30.07 in 7.0 mi Calm Calm - N/A   Clear
4:55 AM 42.8 °F - 41.0 °F 93% 30.07 in 5.0 mi Calm Calm - N/A   Clear
5:15 AM 44.6 °F 43.1 °F 42.8 °F 93% 30.06 in 5.0 mi SSE 3.5 mph - N/A   Clear
5:35 AM 44.6 °F 43.1 °F 42.8 °F 93% 30.06 in 7.0 mi SSE 3.5 mph - N/A   Clear
5:55 AM 44.6 °F 42.2 °F 42.8 °F 93% 30.06 in 5.0 mi SSE 4.6 mph - N/A   Clear
6:15 AM 44.6 °F 43.1 °F 42.8 °F 93% 30.06 in 5.0 mi SSE 3.5 mph - N/A   Clear
6:35 AM 44.6 °F 43.1 °F 42.8 °F 93% 30.06 in 4.0 mi SSE 3.5 mph - N/A   Clear
6:55 AM 46.4 °F 43.5 °F 44.6 °F 93% 30.06 in 4.0 mi South 5.8 mph - N/A   Clear
7:15 AM 46.4 °F 44.3 °F 44.6 °F 93% 30.06 in 5.0 mi South 4.6 mph - N/A   Clear
7:35 AM 48.2 °F - 44.6 °F 87% 30.06 in 7.0 mi South 4.6 mph - N/A   Clear
7:55 AM 48.2 °F - 46.4 °F 93% 30.06 in 7.0 mi South 5.8 mph - N/A   Clear
8:15 AM 51.8 °F - 46.4 °F 82% 30.06 in 10.0 mi South 5.8 mph - N/A   Clear
8:35 AM 53.6 °F - 48.2 °F 82% 30.05 in 10.0 mi South 6.9 mph - N/A   Clear
8:55 AM 55.4 °F - 48.2 °F 77% 30.05 in 10.0 mi SW 4.6 mph - N/A   Clear
9:15 AM 59.0 °F - 51.8 °F 77% 30.05 in 10.0 mi SSW 5.8 mph - N/A   Clear
9:35 AM 60.8 °F - 51.8 °F 72% 30.04 in 10.0 mi South 10.4 mph - N/A   Clear
9:55 AM 62.6 °F - 51.8 °F 68% 30.03 in 10.0 mi SSW 8.1 mph - N/A   Clear
10:15 AM 64.4 °F - 51.8 °F 64% 30.03 in 10.0 mi SW 9.2 mph - N/A   Clear
10:35 AM 66.2 °F - 53.6 °F 64% 30.02 in 10.0 mi South 6.9 mph - N/A   Clear
10:55 AM 66.2 °F - 53.6 °F 64% 30.01 in 10.0 mi South 6.9 mph - N/A   Clear
11:15 AM 69.8 °F - 53.6 °F 56% 30.01 in 10.0 mi SSW 10.4 mph 18.4 mph N/A   Clear
11:35 AM 69.8 °F - 51.8 °F 53% 29.99 in 10.0 mi SSW 11.5 mph 16.1 mph N/A   Clear
11:55 AM 71.6 °F - 53.6 °F 53% 29.98 in 10.0 mi SSW 8.1 mph - N/A   Clear
12:15 PM 71.6 °F - 53.6 °F 53% 29.96 in 10.0 mi SSW 6.9 mph - N/A   Clear
12:35 PM 73.4 °F - 53.6 °F 50% 29.95 in 10.0 mi South 11.5 mph 17.3 mph N/A   Clear
12:55 PM 75.2 °F - 51.8 °F 44% 29.93 in 10.0 mi South 8.1 mph 17.3 mph N/A   Clear
1:15 PM 75.2 °F - 53.6 °F 47% 29.93 in 10.0 mi South 12.7 mph 18.4 mph N/A   Clear
1:35 PM 75.2 °F - 51.8 °F 44% 29.93 in 10.0 mi SSW 9.2 mph 18.4 mph N/A   Clear
1:55 PM 75.2 °F - 51.8 °F 44% 29.93 in 10.0 mi SW 10.4 mph 19.6 mph N/A   Clear
2:15 PM 77.0 °F - 51.8 °F 41% 29.92 in 10.0 mi South 13.8 mph 23.0 mph N/A   Clear
2:35 PM 77.0 °F - 51.8 °F 41% 29.91 in 10.0 mi SSW 10.4 mph 21.9 mph N/A   Clear
2:55 PM 78.8 °F - 51.8 °F 39% 29.90 in 10.0 mi SSW 11.5 mph 20.7 mph N/A   Clear
3:15 PM 78.8 °F - 48.2 °F 34% 29.90 in 10.0 mi South 11.5 mph 23.0 mph N/A   Clear
3:35 PM 78.8 °F - 48.2 °F 34% 29.89 in 10.0 mi SSW 12.7 mph 25.3 mph N/A   Clear
3:55 PM 77.0 °F - 48.2 °F 36% 29.88 in 10.0 mi SSW 9.2 mph 18.4 mph N/A   Clear
4:15 PM 75.2 °F - 48.2 °F 38% 29.88 in 10.0 mi SSW 12.7 mph 20.7 mph N/A   Clear
4:35 PM 75.2 °F - 48.2 °F 38% 29.87 in 10.0 mi SW 16.1 mph 23.0 mph N/A   Clear
4:55 PM 77.0 °F - 48.2 °F 36% 29.87 in 10.0 mi SW 13.8 mph 23.0 mph N/A   Clear
5:15 PM 75.2 °F - 48.2 °F 38% 29.87 in 10.0 mi SSW 11.5 mph 25.3 mph N/A   Clear
5:35 PM 77.0 °F - 48.2 °F 36% 29.85 in 10.0 mi SW 8.1 mph 24.2 mph N/A   Clear
5:55 PM 77.0 °F - 50.0 °F 39% 29.85 in 10.0 mi SSW 8.1 mph 19.6 mph N/A   Clear
6:15 PM 75.2 °F - 50.0 °F 41% 29.85 in 10.0 mi SSW 9.2 mph 18.4 mph N/A   Clear
6:35 PM 75.2 °F - 48.2 °F 38% 29.86 in 10.0 mi SSW 12.7 mph 25.3 mph N/A   Clear
6:55 PM 73.4 °F - 50.0 °F 44% 29.87 in 10.0 mi SW 16.1 mph 25.3 mph N/A   Clear
7:15 PM 73.4 °F - 51.8 °F 47% 29.88 in 10.0 mi SSW 12.7 mph 23.0 mph N/A   Clear
7:35 PM 71.6 °F - 51.8 °F 50% 29.90 in 10.0 mi SW 8.1 mph 21.9 mph N/A   Clear
7:55 PM 71.6 °F - 51.8 °F 50% 29.90 in 10.0 mi SW 6.9 mph 17.3 mph N/A   Mostly Cloudy
8:15 PM 71.6 °F - 51.8 °F 50% 29.89 in 10.0 mi SSW 5.8 mph - N/A   Scattered Clouds
8:35 PM 71.6 °F - 53.6 °F 53% 29.90 in 10.0 mi SSW 6.9 mph - N/A   Clear
8:55 PM 69.8 °F - 53.6 °F 56% 29.91 in 10.0 mi SSW 5.8 mph - N/A   Scattered Clouds
9:15 PM 69.8 °F - 53.6 °F 56% 29.91 in 10.0 mi SSW 6.9 mph - N/A   Overcast
9:35 PM 69.8 °F - 53.6 °F 56% 29.92 in 10.0 mi SSW 9.2 mph - N/A   Overcast
9:55 PM 69.8 °F - 53.6 °F 56% 29.92 in 10.0 mi SSW 6.9 mph - N/A   Mostly Cloudy
11:15 PM 66.2 °F - 53.6 °F 64% 29.93 in 10.0 mi SSW 3.5 mph - N/A   Clear
11:35 PM 66.2 °F - 53.6 °F 64% 29.93 in 10.0 mi Calm Calm - N/A   Scattered Clouds
11:55 PM 66.2 °F - 53.6 °F 64% 29.94 in 10.0 mi Calm Calm - N/A   Mostly Cloudy